Weather History for Carbondale, IL

Change the Weather History Date:

Friday, April 5, 2013

  Actual Average Record
Temperature  
Mean Temperature 49 °F -  
Max Temperature 66 °F 60 °F 85 °F (1932)
Min Temperature 32 °F 38 °F 24 °F (1920)
Degree Days  
Heating Degree Days 16    
Moisture  
Dew Point 34 °F    
Average Humidity 58    
Maximum Humidity 88    
Minimum Humidity 32    
Precipitation  
Precipitation 0.00 in - - ()
Sea Level Pressure  
Sea Level Pressure 30.10 in    
Wind  
Wind Speed 3 mph (North)    
Max Wind Speed 12 mph    
Max Gust Speed 28 mph    
Visibility 10 miles    
Events      
Averages and records for this station are not official NWS values.
T = Trace of Precipitation, MM = Missing Value Source: NWS Daily Summary

Daily Weather History Graph

Daily Weather History Graph

Search for Another Location

Airport:

Trip Planner

Search our weather history database for the weather conditions in past years. The results will help you decide how hot, cold, wet, or windy it might be!

Date:

Astronomy

Apr. 05, 2013 Rise Set
Actual Time 6:35 AM CDT 7:23 PM CDT
Civil Twilight 6:09 AM CDT 7:50 PM CDT
Nautical Twilight 5:37 AM CDT 8:22 PM CDT
Astronomical Twilight 5:05 AM CDT 8:54 PM CDT
Moon 3:38 AM CDT (4/5) 2:52 PM CDT (4/5)
Length of Visible Light 13h 41m
Length of Day
12h 47m
Waning Crescent, 23% of the Moon is Illuminated
Apr 5
Waning Crescent
Apr 10
New
Apr 18
First Quarter
Apr 25
Full
May 2
Last Quarter

Hourly Weather History & Observations

Time (CDT) Temp. Windchill Dew Point Humidity Pressure Visibility Wind Dir Wind Speed Gust Speed Precip Events Conditions
12:52 AM 37.0 °F - 32.0 °F 82% 30.06 in 10.0 mi Calm Calm - N/A   Clear
1:52 AM 35.1 °F - 30.9 °F 85% 30.07 in 10.0 mi Calm Calm - N/A   Clear
2:52 AM 35.1 °F - 30.9 °F 85% 30.07 in 10.0 mi Calm Calm - N/A   Clear
3:52 AM 34.0 °F - 30.0 °F 85% 30.08 in 10.0 mi Calm Calm - N/A   Clear
4:52 AM 32.0 °F - 28.9 °F 88% 30.09 in 10.0 mi Calm Calm - N/A   Clear
5:52 AM 33.1 °F - 28.9 °F 85% 30.12 in 10.0 mi Calm Calm - N/A   Clear
6:52 AM 32.0 °F - 28.9 °F 88% 30.13 in 10.0 mi Calm Calm - N/A   Clear
7:52 AM 39.0 °F 35.7 °F 34.0 °F 82% 30.14 in 10.0 mi Variable 4.6 mph 27.6 mph N/A   Clear
8:52 AM 48.0 °F - 33.1 °F 56% 30.15 in 10.0 mi West 3.5 mph - N/A   Clear
9:52 AM 55.0 °F - 33.1 °F 43% 30.14 in 10.0 mi NW 6.9 mph - N/A   Clear
11:52 AM 63.0 °F - 34.0 °F 34% 30.15 in 10.0 mi NNW 8.1 mph - N/A   Clear
12:52 PM 64.0 °F - 37.0 °F 37% 30.14 in 10.0 mi NNW 10.4 mph 19.6 mph N/A   Clear
1:52 PM 64.9 °F - 39.0 °F 39% 30.12 in 10.0 mi North 11.5 mph 19.6 mph N/A   Clear
2:52 PM 66.0 °F - 35.1 °F 32% 30.09 in 10.0 mi NW 8.1 mph - N/A   Partly Cloudy
3:52 PM 66.0 °F - 36.0 °F 33% 30.08 in 10.0 mi North 10.4 mph 16.1 mph N/A   Scattered Clouds
4:52 PM 66.0 °F - 35.1 °F 32% 30.08 in 10.0 mi North 8.1 mph - N/A   Clear
5:52 PM 64.9 °F - 35.1 °F 33% 30.08 in 10.0 mi North 4.6 mph - N/A   Clear
6:52 PM 61.0 °F - 34.0 °F 36% 30.08 in 10.0 mi NNE 5.8 mph - N/A   Clear
7:52 PM 57.9 °F - 35.1 °F 42% 30.09 in 10.0 mi ENE 4.6 mph - N/A   Clear
8:52 PM 54.0 °F - 36.0 °F 51% 30.09 in 10.0 mi NE 5.8 mph - N/A   Clear
9:52 PM 52.0 °F - 34.0 °F 50% 30.11 in 10.0 mi South 3.5 mph - N/A   Clear
10:52 PM 48.9 °F - 36.0 °F 61% 30.09 in 10.0 mi ESE 4.6 mph - N/A   Clear
11:52 PM 46.0 °F 43.1 °F 37.0 °F 71% 30.09 in 10.0 mi SSE 5.8 mph - N/A   Clear